This is the latest recevied weather packets stored in our database for station/object KD2RHT-13. If no packets are shown the sender has not sent any weather packets the latest 10 day(s).
| Time | Temp. | Humidity | Pressure | Rain* | Wind** | Luminosity | Snow |
|---|---|---|---|---|---|---|---|
| 1777238218 | 16.67° C | 55% | 1022.1 hPa | 0 mm | - | 63 W/m² | - |
| 1777237915 | 16.67° C | 54% | 1022.1 hPa | 0 mm | - | 63 W/m² | - |
| 1777237611 | 16.67° C | 56% | 1022.1 hPa | 0 mm | - | 65 W/m² | - |
| 1777237309 | 16.11° C | 57% | 1022.1 hPa | 0 mm | - | 110 W/m² | - |
| 1777237006 | 16.67° C | 54% | 1022.1 hPa | 0 mm | - | 95 W/m² | - |
| 1777236704 | 16.67° C | 57% | 1022.1 hPa | 0 mm | - | 79 W/m² | - |
| 1777236398 | 17.22° C | 55% | 1022.1 hPa | 0 mm | - | 96 W/m² | - |
| 1777236094 | 17.22° C | 58% | 1022.1 hPa | 0 mm | - | 156 W/m² | - |
| 1777235790 | 17.22° C | 55% | 1022.1 hPa | 0 mm | - | 265 W/m² | - |
| 1777235487 | 17.78° C | 58% | 1022.1 hPa | 0 mm | - | 378 W/m² | - |
| 1777235183 | 17.78° C | 56% | 1022.1 hPa | 0 mm | - | 327 W/m² | - |
| 1777234880 | 17.78° C | 56% | 1022.1 hPa | 0 mm | - | 461 W/m² | - |
| 1777234575 | 18.33° C | 55% | 1022.1 hPa | 0 mm | - | 402 W/m² | - |
| 1777234275 | 17.78° C | 57% | 1022.1 hPa | 0 mm | - | 490 W/m² | - |
| 1777233972 | 17.22° C | 57% | 1022.1 hPa | 0 mm | - | 505 W/m² | - |
| 1777233669 | 17.22° C | 59% | 1022.1 hPa | 0 mm | - | 514 W/m² | - |
| 1777233369 | 17.78° C | 58% | 1022.4 hPa | 0 mm | - | 505 W/m² | - |
| 1777233063 | 17.78° C | 61% | 1022.4 hPa | 0 mm | - | 507 W/m² | - |
| 1777232761 | 17.78° C | 59% | 1022.1 hPa | 0 mm | - | 525 W/m² | - |
| 1777232459 | 17.78° C | 62% | 1022.4 hPa | 0 mm | - | 553 W/m² | - |
| 1777232156 | 17.22° C | 61% | 1022.4 hPa | 0 mm | - | 548 W/m² | - |
| 1777231853 | 17.22° C | 60% | 1022.1 hPa | 0 mm | - | 553 W/m² | - |
| 1777231549 | 17.78° C | 57% | 1022.4 hPa | 0 mm | - | 568 W/m² | - |
| 1777231246 | 17.22° C | 64% | 1022.4 hPa | 0 mm | - | 617 W/m² | - |
| 1777230942 | 17.78° C | 60% | 1022.4 hPa | 0 mm | - | 138 W/m² | - |
* Rain latest hour (hover to see other rain measurements)
** Current wind speed in m/s (hover to see current wind gust speed)